Tracking 30995 objects as of 6-Jul-2025
HD Live streaming from Space Station
objects crossing your sky now

COSMOS 2310

Track COSMOS 2310 now!
10-day predictions
COSMOS 2310 is classified as:


NORAD ID: 23526
Int'l Code: 1995-012A
Perigee: 981.9 km
Apogee: 1,015.1 km
Inclination: 82.9 °
Period: 104.9 minutes
Semi major axis: 7369 km
RCS: 2.0035 m2 (large)
Launch date: March 21, 1995
Source: Commonwealth of Independent States (former USSR) (CIS)
Launch site: PLESETSK MISSILE AND SPACE COMPLEX (PKMTR)
Your satellite tracking list
Your tracking list is empty




NASA's NSSDC Master Catalog

Two Line Element Set (TLE):
1 23526U 95012A   25186.57240017  .00000052  00000-0  40696-4 0  9999
2 23526  82.9456  44.3126 0022474 172.9846 216.2357 13.72292149516389
Source of the keplerian elements: AFSPC